一网星座-0609星 (ONEWEB-0609)

导读

ONEWEB-0609是英国OneWeb公司的第一代低轨宽带互联网卫星,于2023年3月26日由印度LVM3火箭发射升空,进入高度约1200公里的近极轨道。该卫星质量约150公斤,采用Ku波段提供宽带服务,通过Ka频段连接地面站,助力OneWeb完成第一代全球卫星宽带星座组网,为企业、交通及政府客户提供覆盖全球的天基通信服务。

基本信息
目录编号:
56070
目录名称:
ONEWEB-0609
国际标识:
2023-043AA
轨道中心:
EARTH
卫星名称:
一网星座-0609星
卫星全名:
一网星座-0609星 (ONEWEB-0609)
卫星状态:
在轨 (已飞行1176 天)
发射日期:
2023-03-26 UTC
国别 :
英国 (GB)
星等 :
--
轨道信息
数据来源 国际轨道数据 AOE轨道数据
星历时间 2026-06-14T14:59:20+0800
6小时前
查看轨道信息
2026-06-14T04:00:00+0800
17小时前
查看轨道信息
半长轴 7579.905km 7579.901km
偏心率 0.0002005 0.0001592
轨道倾角 87.900° 87.901°
近地点辐角 102.839° 97.303°
升交点赤经 259.789° 259.879°
平近点角 257.297° 255.630°
近地点 1200.248km 1200.557km
远地点 1203.288km 1202.971km
周期 109.460分钟 109.460分钟
每日圈数 13.155493 13.155504
详细信息
平衡模式:
三轴稳定
覆盖范围:
全球
运营商:
一网卫星公司
运营商所在国:
英国
制造商(研发单位):
一网卫星公司
制造商所在国:
英国
使用方式:
暂无
卫星简介
OneWeb卫星网络由648颗重约125公斤的微型卫星组成,运行在1200公里的轨道上。 每颗卫星都能够提供至少每秒8千兆位的吞吐量,以使用其高吞吐量的Ku频段有效载荷为家庭和移动平台提供互联网接入。该卫星仍在工作。
2D轨道图
3D轨道图
轨道高度分析图
轨道倾角分析图
轨道综合分析图
查看轨道综合分析图